[[{"header":{"parameterUnit":"m.s-1","parameterCategory":1,"la1":30.2991,"la2":30.254,"lo1":-89.0895,"lo2":-89.0444,"dy":0.0017,"dx":0.0017,"nx":28,"ny":28,"refTime":"2025-11-08T09:00:00:Z","depth":0,"parameterNumber":2,"parameterNumberName":"U-component_of_WINDS"},"data":[0,0,0,0,0,0,0,0,0,0,0,0,0,0,0,0,0,0,0,0,0,0,0,0,0,0,0,0,0,0,0,0,0,0,0,0,0,0,0,0,0,0,0,0,0,0,0,0,0,0,0,0,0,0,0,0,0,0,1.6605,1.6604,0,1.6537,1.6537,1.6536,1.6584,1.6586,1.6589,1.6591,1.6522,1.6518,1.6514,0,0,0,0,0,0,0,0,0,0,0,0,0,1.6778,1.6775,1.6605,1.6604,1.6603,1.6538,1.6537,1.6536,1.6584,1.6586,1.6589,1.6592,1.6523,1.6519,1.6514,0,0,0,0,0,0,0,0,0,0,0,0,0,1.6706,1.6774,1.6605,1.662,1.662,1.6538,1.6537,1.6535,1.6583,1.6587,1.659,1.6593,1.6525,1.6519,1.6513,1.6413,0,0,1.6496,1.6493,0,0,0,0,0,0,0,0,1.671,1.67,1.6618,1.6618,1.6619,1.6573,1.6573,1.6495,1.6582,1.6597,1.6591,1.6594,1.6536,1.653,1.651,1.641,1.6407,1.6495,1.6492,1.6489,1.6488,0,0,0,0,0,0,0,1.6715,1.6703,1.6578,1.6617,1.6617,1.663,1.6623,1.6558,1.655,1.6596,1.66,1.6591,1.6537,1.6515,1.6509,1.6406,1.6495,1.649,1.6487,1.6485,1.6224,1.6221,0,0,0,0,0,0,1.6719,1.6707,1.6581,1.6576,1.6673,1.6624,1.6617,1.6584,1.655,1.6548,1.6588,1.6593,1.6524,1.6515,1.6506,1.6389,1.6489,1.6484,1.6481,1.6228,1.6224,1.622,0,0,0,0,0,0,1.6722,1.6707,1.6583,1.6642,1.6628,1.6618,1.6581,1.6581,1.656,1.6544,1.6543,1.6567,1.6526,1.6515,1.6437,1.6387,1.6481,1.6476,1.6232,1.6226,1.6222,1.6152,0,0,0,0,0,0,1.6727,1.6708,1.6669,1.6641,1.6624,1.6514,1.6578,1.6578,1.6549,1.6556,1.6525,1.6523,1.6527,1.6445,1.6431,1.6381,1.6472,1.6236,1.6229,1.6223,1.6159,1.6145,1.6133,0,0,0,0,0,1.6733,1.6652,1.6667,1.6651,1.6575,1.6511,1.6501,1.6508,1.6545,1.6507,1.6497,1.6524,1.6395,1.6437,1.6421,1.6369,1.6239,1.6231,1.6224,1.6164,1.6148,1.6134,0,0,0,0,0,0,1.6673,1.6648,1.6665,1.6572,1.6543,1.6519,1.647,1.649,1.645,1.6458,1.6469,1.6461,1.638,1.6367,1.6414,1.6272,1.6323,1.6312,1.6283,1.6267,1.6255,1.626,1.6467,0,0,0,0,0,1.6649,1.6598,1.6579,1.6499,1.6484,1.648,1.6452,1.646,1.6431,1.6419,1.6404,1.6375,1.6328,1.6297,1.6253,1.6157,1.6152,1.6114,1.6101,1.6091,1.6081,1.6032,1.6015,1.6194,1.6194,1.6194,0,0,1.6599,1.6579,1.6546,1.6487,1.6466,1.6414,1.6469,1.6411,1.6373,1.641,1.6336,1.6324,1.6293,1.6206,1.6167,1.6192,1.6031,1.6081,1.6073,1.6068,1.6022,1.6005,1.599,1.6189,1.619,1.6191,0,0,1.6482,1.6461,1.6393,1.6371,1.6338,1.6336,1.632,1.6293,1.6287,1.6213,1.6241,1.6196,1.6115,1.6092,1.6069,1.5946,1.5969,1.5932,1.5865,1.5817,1.5803,1.5791,1.5748,1.5732,1.5922,1.5922,1.5921,0,1.6423,1.6345,1.6355,1.6296,1.627,1.6302,1.6234,1.6212,1.6167,1.6149,1.6178,1.6078,1.6059,1.5969,1.5939,1.5919,1.5902,1.5935,1.5804,1.5792,1.578,1.574,1.5724,1.5917,1.5918,1.5918,1.5919,0,1.6277,1.6222,1.6172,1.6128,1.6096,1.6032,1.6034,1.6001,1.6012,1.6008,1.5933,1.5912,1.5865,1.5845,1.5855,1.5756,1.5773,1.5803,1.5855,1.5759,1.5721,1.5705,1.5911,1.5913,1.5914,1.5915,0,0,1.6118,1.6082,1.6063,1.6045,1.6012,1.5971,1.591,1.5865,1.5837,1.5805,1.5755,1.5687,1.5715,1.569,1.5699,1.5656,1.5562,1.5692,1.5691,1.5669,1.5454,1.5432,1.5414,1.5577,1.5574,1.5572,1.5457,0,1.5999,1.5893,1.5901,1.5801,1.5752,1.5783,1.573,1.5705,1.57,1.5658,1.5653,1.5605,1.5645,1.563,1.559,1.5582,1.5519,1.559,1.5532,1.553,1.5539,1.5394,1.537,1.5262,1.5442,1.5439,1.5438,0,1.5846,1.581,1.5705,1.5683,1.5663,1.5615,1.5575,1.5535,1.5508,1.5507,1.548,1.5497,1.5437,1.549,1.5409,1.5457,1.5434,1.5427,1.5423,1.5418,1.5478,1.5386,1.5228,1.5212,1.5414,1.5416,1.5418,0,1.5742,1.5668,1.5596,1.5579,1.555,1.5517,1.5503,1.548,1.5453,1.5418,1.5401,1.536,1.5338,1.5307,1.5312,1.535,1.523,1.5283,1.5228,1.5228,1.5201,1.5203,1.5038,1.5185,1.5185,1.5186,1.5186,0,1.5609,1.5544,1.5549,1.5505,1.5434,1.5445,1.5374,1.5365,1.5344,1.53,1.5324,1.5282,1.5291,1.525,1.5254,1.5187,1.5176,1.5175,1.5177,1.5173,1.5173,1.5158,1.5166,1.5182,1.5182,1.5183,1.5184,0,1.5481,1.5482,1.5406,1.5386,1.5379,1.5328,1.5311,1.527,1.5268,1.5211,1.5198,1.5194,1.5147,1.515,1.5096,1.5099,1.5017,1.5027,1.5025,1.5028,1.4973,1.4979,1.4793,1.477,1.4932,1.493,1.4929,0,1.5396,1.5347,1.5322,1.5295,1.5279,1.5234,1.5207,1.5217,1.5188,1.5155,1.5118,1.5074,1.5038,1.4961,1.4954,1.4914,1.4924,1.4862,1.4918,1.4916,1.4924,1.4927,1.4923,1.4851,1.4849,1.4847,1.4846,0,1.5246,1.525,1.521,1.5171,1.5138,1.5107,1.508,1.5056,1.5063,1.503,1.4982,1.4954,1.4901,1.4856,1.4818,1.4805,1.4827,1.4829,1.4814,1.481,1.4811,1.4811,1.4996,1.4833,1.4834,1.4835,1.4836,1.4836,1.5138,1.5096,1.5073,1.5029,1.5009,1.4983,1.4944,1.4938,1.4898,1.4855,1.4864,1.4811,1.4788,1.4739,1.4723,1.4682,1.4704,1.4683,1.4678,1.4672,1.4667,1.4818,1.4675,1.4676,1.4676,1.4676,1.4676,0,1.499,1.4977,1.4936,1.4897,1.4863,1.4887,1.4858,1.4828,1.4781,1.4758,1.4723,1.4669,1.4627,1.4617,1.4577,1.4547,1.4556,1.4536,1.4538,1.4536,1.4648,1.4665,1.4529,1.4529,1.4529,1.4529,1.4529,1.4529,1.4909,1.4841,1.4842,1.4765,1.4753,1.4701,1.4683,1.466,1.4642,1.4581,1.4546,1.454,1.4523,1.4483,1.4445,1.4444,1.4428,1.4405,1.4407,1.4513,1.4527,1.4541,1.4558,1.4401,1.4401,1.4298,1.4297,1.4296]},{"header":{"parameterUnit":"m.s-1","parameterCategory":1,"la1":30.2991,"la2":30.254,"lo1":-89.0895,"lo2":-89.0444,"dy":0.0017,"dx":0.0017,"nx":28,"ny":28,"refTime":"2025-11-08T09:00:00:Z","depth":0,"parameterNumber":3,"parameterNumberName":"V-component_of_WINDS"},"data":[0,0,0,0,0,0,0,0,0,0,0,0,0,0,0,0,0,0,0,0,0,0,0,0,0,0,0,0,0,0,0,0,0,0,0,0,0,0,0,0,0,0,0,0,0,0,0,0,0,0,0,0,0,0,0,0,0,0,1.9488,1.9489,0,1.9544,1.9545,1.9545,1.9547,1.9547,1.9546,1.9545,1.96,1.9602,1.9604,0,0,0,0,0,0,0,0,0,0,0,0,0,1.9379,1.9381,1.9488,1.9489,1.9489,1.9544,1.9545,1.9545,1.9547,1.9547,1.9546,1.9545,1.9599,1.9602,1.9604,0,0,0,0,0,0,0,0,0,0,0,0,0,1.943,1.9382,1.9488,1.9497,1.9498,1.9544,1.9545,1.9546,1.9548,1.9547,1.9546,1.9545,1.9598,1.9601,1.9605,1.9644,0,0,1.9614,1.9615,0,0,0,0,0,0,0,0,1.9427,1.9434,1.9495,1.9496,1.9498,1.9538,1.9526,1.9578,1.9548,1.9529,1.9545,1.9544,1.958,1.9584,1.9597,1.9646,1.9648,1.9614,1.9616,1.9618,1.9618,0,0,0,0,0,0,0,1.9423,1.9431,1.951,1.9496,1.9498,1.9497,1.9503,1.9536,1.9559,1.953,1.9531,1.9537,1.958,1.9594,1.9598,1.9649,1.9614,1.9617,1.9619,1.962,1.9731,1.9732,0,0,0,0,0,0,1.9418,1.9428,1.9508,1.9512,1.9459,1.95,1.9507,1.9526,1.9559,1.9563,1.9538,1.9537,1.9589,1.9595,1.96,1.9646,1.9617,1.962,1.9622,1.973,1.9731,1.9732,0,0,0,0,0,0,1.9416,1.9426,1.9506,1.947,1.948,1.9503,1.9524,1.9528,1.9541,1.9565,1.9569,1.9548,1.9589,1.9596,1.9632,1.9648,1.9622,1.9625,1.9728,1.973,1.9732,1.974,0,0,0,0,0,0,1.9413,1.9425,1.9441,1.9471,1.9482,1.9538,1.9525,1.9529,1.9547,1.9546,1.9575,1.9579,1.9588,1.9628,1.9636,1.9652,1.9627,1.9727,1.9729,1.9731,1.9739,1.9742,1.9745,0,0,0,0,0,1.9409,1.9441,1.9442,1.9451,1.9503,1.9539,1.9546,1.9557,1.9548,1.9564,1.9578,1.9578,1.9646,1.9632,1.964,1.9658,1.9726,1.9729,1.9731,1.9737,1.9741,1.9745,0,0,0,0,0,0,1.9411,1.9445,1.9446,1.9489,1.9511,1.954,1.956,1.9561,1.9586,1.9585,1.9597,1.9603,1.9639,1.9652,1.9636,1.9696,1.9685,1.9689,1.9686,1.969,1.9694,1.9689,1.963,0,0,0,0,0,1.9417,1.9445,1.9472,1.9507,1.9518,1.9537,1.9553,1.956,1.9584,1.9593,1.9611,1.9632,1.9658,1.9675,1.9701,1.9741,1.9746,1.9757,1.976,1.9763,1.9766,1.9786,1.9791,1.974,1.974,1.974,0,0,1.9429,1.945,1.9467,1.9508,1.9526,1.9553,1.9545,1.9575,1.9594,1.9597,1.9632,1.9646,1.9671,1.9709,1.9727,1.9721,1.9781,1.9766,1.9768,1.9769,1.9789,1.9794,1.9798,1.9742,1.9742,1.9741,0,0,1.9463,1.9483,1.9514,1.9532,1.956,1.9572,1.9579,1.9608,1.9617,1.9653,1.9655,1.9678,1.9724,1.9741,1.9755,1.9795,1.9795,1.9803,1.9819,1.9839,1.9843,1.9846,1.9859,1.9863,1.9807,1.9807,1.9807,0,1.9474,1.9516,1.9529,1.9558,1.9575,1.958,1.9609,1.9626,1.9661,1.9672,1.9666,1.9721,1.9739,1.978,1.979,1.9802,1.9809,1.98,1.9841,1.9845,1.9848,1.986,1.9865,1.9807,1.9807,1.9807,1.9807,0,1.9527,1.9556,1.9577,1.961,1.963,1.9659,1.9675,1.9693,1.9698,1.971,1.9745,1.9766,1.9795,1.9806,1.9811,1.9847,1.9843,1.9839,1.9827,1.9854,1.9865,1.987,1.9808,1.9808,1.9808,1.9808,0,0,1.9564,1.9604,1.9611,1.9626,1.9657,1.9679,1.9708,1.9737,1.9751,1.9775,1.9798,1.9835,1.9832,1.9848,1.9855,1.9872,1.99,1.9866,1.9867,1.987,1.994,1.9941,1.9947,1.9901,1.9902,1.9903,1.9937,0,1.9601,1.9653,1.9665,1.9709,1.9735,1.9739,1.9764,1.9785,1.9797,1.982,1.9833,1.9858,1.9852,1.9862,1.988,1.9893,1.9914,1.9891,1.9921,1.9922,1.9913,1.9953,1.9955,1.9987,1.9942,1.9942,1.9943,0,1.9651,1.9675,1.9723,1.9749,1.976,1.9782,1.9809,1.9831,1.9854,1.9862,1.988,1.9885,1.9913,1.9901,1.9939,1.9923,1.9936,1.9944,1.9945,1.9947,1.9933,1.9954,1.9997,2.0001,1.995,1.995,1.9949,0,1.9671,1.9716,1.975,1.9763,1.9794,1.981,1.9823,1.9846,1.9862,1.9885,1.9895,1.9921,1.9935,1.9954,1.9965,1.9955,2.0001,1.999,2.0007,2.0006,2.0015,2.0014,2.0059,2.0026,2.0026,2.0026,2.0026,0,1.971,1.9738,1.9759,1.978,1.9811,1.9824,1.9854,1.9867,1.9887,1.9909,1.9914,1.9934,1.9948,1.997,1.9979,2.0008,2.0015,2.002,2.0022,2.0019,2.0018,2.0027,2.0024,2.0027,2.0027,2.0027,2.0026,0,1.9737,1.9753,1.979,1.9817,1.9824,1.9846,1.9868,1.9888,1.99,1.9927,1.9935,1.9953,1.9979,1.9992,2.0024,2.003,2.0062,2.0063,2.0055,2.0055,2.007,2.0068,2.0121,2.0127,2.0091,2.0092,2.0092,0,1.976,1.9782,1.9812,1.9827,1.9842,1.9867,1.9883,1.9896,1.9913,1.994,1.9956,1.9982,2.0004,2.0044,2.006,2.0084,2.0085,2.0101,2.0088,2.0084,2.0083,2.0081,2.0082,2.0103,2.0104,2.0104,2.0104,0,1.9799,1.9806,1.983,1.9857,1.9877,1.9898,1.9919,1.9931,1.9947,1.9966,1.9992,2.0009,2.0042,2.0067,2.0092,2.0105,2.0107,2.0108,2.0113,2.011,2.0103,2.0105,2.0059,2.0107,2.0107,2.0106,2.0106,2.0106,1.9824,1.9843,1.9867,1.9893,1.991,1.993,1.9949,1.9963,1.9986,2.0014,2.002,2.0048,2.0069,2.0103,2.0116,2.0137,2.0134,2.0141,2.0143,2.0144,2.0144,2.0101,2.0142,2.0142,2.0142,2.0142,2.0142,0,1.9862,1.9877,1.9901,1.9931,1.9951,1.9952,1.9975,1.9992,2.0016,2.0036,2.0058,2.0087,2.0112,2.0129,2.0153,2.0167,2.0168,2.0172,2.0171,2.0173,2.0147,2.0139,2.0171,2.0171,2.0171,2.0171,2.0171,2.0171,1.9883,1.9915,1.9924,1.9964,1.9979,2.0007,2.002,2.0037,2.0053,2.0086,2.0107,2.0118,2.0136,2.0162,2.0184,2.0188,2.0196,2.02,2.0204,2.0179,2.0175,2.0172,2.0166,2.0202,2.0202,2.0229,2.023,2.023]}]]